Weather in Vyshneve

Ukraine / Dnipropetrovsk Region     47°52′34″N   36°19′00″E
temp.,
°C
wind,
m/s
gust,
m/s
humid.,
%
clouds,
%
prec.,
mm/h
press.,
hPa
HPBL,
m
6 may, thu
thu600:00+9sse3653100 0.0 1015121
03:00+8sse3760100 0.0 1015141
06:00+8se3969100 0.0 1014188
09:00+15sse6856100 0.0 1013926
12:00+18s5645100 0.0 10121636
15:00+19ssw4540100 0.0 10112039
18:00+18sw4549100 0.0 1011591
21:00+14w4658100 0.0 1013124
7 may, fri
fri700:00+12nnw378099 0.0 1014228
03:00+11nnw3687100 0.0 1015291
06:00+9n3591100 0.0 1016187
09:00+14nne346174 0.0 1017671
12:00+18ese2246100 0.0 10161368
15:00+20sw2441100 0.0 10151991
18:00+19ssw685792 0.1 1014801
21:00+14s41063100 0.1 1015279
8 may, sat
sat800:00+13s41166100 0.0 1014308
03:00+12s41168100 0.0 1013350
06:00+12s51079100 0.1 1013277
09:00+13sse4976100 0.4 1012306
12:00+20s7853100 0.0 10111101
15:00+21sw6851100 0.0 10092010
18:00+12nnw81086100 0.3 1011491
21:00+10nnw71188100 1.0 1014777
9 may, sun
sun900:00+8n81192100 3.3 1014724
03:00+7n71289100 14.4 10151000
06:00+7n71290100 2.6 10161026
09:00+8n81477100 3.3 10171236
12:00+10nnw91459100 0.1 10181609
15:00+13nnw91349100 0.1 10192452
18:00+12nnw8135482 0.1 10201481
21:00+8nw5116511 0.3 1023316
10 may, mon
mon1000:00+7nw614715 0.0 1023379
03:00+6nw6157572 0.0 1023445
06:00+7nw8166786 0.0 1022883
09:00+10nnw101762100 0.0 10211423
12:00+8n91675100 0.8 10201195
15:00+8n91585100 2.1 10201024
18:00+8n81389100 0.1 1020877
21:00+8nne61193100 0.1 1020561